EWG76U EDDL-EDDH

Flight info

Callsign EWG76U
Flight time 0h 38m
Altitude 35000
Route MEVEL1Z MEVEL Y850 MUBZI M105 RIBSO RIBSO7A
Aircraft A319/M-SDE3FGHIRWY/LB1

Departure

Time 2026-05-05 07:59
Airport Düsseldorf Airport (EDDL)

Arrival

Time 2026-05-05 08:37
Airport Hamburg Helmut Schmidt Airport (EDDH)
Time Latitude Longitude Altitude Speed Heading
2026-05-05 07:38 51.28068 6.76536 131 ft 0 kts 96°
2026-05-05 07:49 51.28069 6.76527 131 ft 4 kts 96°
2026-05-05 07:50 51.28072 6.76484 129 ft 4 kts 102°
2026-05-05 07:50 51.28081 6.76447 128 ft 2 kts 130°
2026-05-05 07:50 51.28096 6.76420 125 ft 4 kts 134°
2026-05-05 07:50 51.28112 6.76394 125 ft 2 kts 134°
2026-05-05 07:51 51.28128 6.76363 128 ft 4 kts 119°
2026-05-05 07:51 51.28140 6.76327 128 ft 2 kts 117°
2026-05-05 07:51 51.28149 6.76288 126 ft 4 kts 93°
2026-05-05 07:51 51.28145 6.76248 126 ft 4 kts 65°
2026-05-05 07:52 51.28131 6.76212 128 ft 4 kts 51°
2026-05-05 07:52 51.28120 6.76190 125 ft 0 kts 52°
2026-05-05 07:54 51.28129 6.76208 127 ft 4 kts 52°
2026-05-05 07:54 51.28155 6.76251 129 ft 7 kts 31°
2026-05-05 07:55 51.28218 6.76235 126 ft 11 kts
2026-05-05 07:55 51.28281 6.76339 127 ft 16 kts 53°
2026-05-05 07:55 51.28358 6.76501 124 ft 21 kts 53°
2026-05-05 07:55 51.28456 6.76707 126 ft 26 kts 52°
2026-05-05 07:56 51.28573 6.76950 128 ft 29 kts 53°
2026-05-05 07:56 51.28703 6.77224 130 ft 32 kts 52°
2026-05-05 07:56 51.28833 6.77496 130 ft 32 kts 53°
2026-05-05 07:56 51.28956 6.77755 128 ft 30 kts 52°
2026-05-05 07:57 51.29077 6.78009 128 ft 29 kts 52°
2026-05-05 07:57 51.29168 6.78197 136 ft 10 kts 45°
2026-05-05 07:57 51.29238 6.78207 138 ft 11 kts 341°
2026-05-05 07:57 51.29299 6.78131 142 ft 9 kts 315°
2026-05-05 07:58 51.29332 6.78072 143 ft 6 kts 293°
2026-05-05 07:58 51.29318 6.78045 143 ft 0 kts 229°
2026-05-05 07:58 51.29301 6.78014 142 ft 23 kts 230°
2026-05-05 07:59 51.29036 6.77459 131 ft 99 kts 233°
2026-05-05 07:59 51.28498 6.76320 159 ft 152 kts 234°
2026-05-05 07:59 51.27852 6.74937 701 ft 156 kts 234°
2026-05-05 07:59 51.27196 6.73552 1423 ft 157 kts 233°
2026-05-05 08:00 51.26621 6.71983 1823 ft 177 kts 257°
2026-05-05 08:00 51.26921 6.69995 2197 ft 201 kts 308°
2026-05-05 08:00 51.28131 6.68874 3034 ft 204 kts 346°
2026-05-05 08:00 51.29535 6.68604 4029 ft 208 kts
2026-05-05 08:01 51.31072 6.68792 4643 ft 235 kts
2026-05-05 08:01 51.32789 6.68988 5322 ft 260 kts
2026-05-05 08:01 51.34665 6.69161 6171 ft 276 kts
2026-05-05 08:01 51.36604 6.69348 7191 ft 281 kts
2026-05-05 08:02 51.38559 6.69541 8249 ft 282 kts
2026-05-05 08:02 51.40532 6.69660 9283 ft 285 kts
2026-05-05 08:02 51.42534 6.69684 10198 ft 292 kts
2026-05-05 08:02 51.44655 6.69669 10591 ft 316 kts
2026-05-05 08:03 51.46910 6.69644 11174 ft 329 kts
2026-05-05 08:03 51.49213 6.69622 12007 ft 333 kts
2026-05-05 08:03 51.51544 6.69608 12870 ft 336 kts
2026-05-05 08:03 51.53896 6.69607 13713 ft 340 kts
2026-05-05 08:04 51.56270 6.69611 14478 ft 342 kts
2026-05-05 08:04 51.58632 6.69837 15162 ft 348 kts 10°
2026-05-05 08:04 51.60962 6.70962 15813 ft 353 kts 24°
2026-05-05 08:04 51.63082 6.72993 16540 ft 358 kts 38°
2026-05-05 08:05 51.64863 6.75831 17224 ft 364 kts 51°
2026-05-05 08:05 51.66385 6.79129 17904 ft 369 kts 53°
2026-05-05 08:05 51.67923 6.82480 18499 ft 375 kts 53°
2026-05-05 08:05 51.69484 6.85879 19073 ft 380 kts 52°
2026-05-05 08:06 51.71073 6.89339 19615 ft 386 kts 52°
2026-05-05 08:06 51.72680 6.92841 20223 ft 391 kts 52°
2026-05-05 08:06 51.74305 6.96383 20803 ft 395 kts 52°
2026-05-05 08:06 51.75946 6.99969 21406 ft 399 kts 52°
2026-05-05 08:07 51.77602 7.03594 21984 ft 404 kts 52°
2026-05-05 08:07 51.79278 7.07269 22549 ft 408 kts 52°
2026-05-05 08:07 51.80971 7.10988 23106 ft 413 kts 52°
2026-05-05 08:07 51.82680 7.14753 23635 ft 418 kts 52°
2026-05-05 08:08 51.84410 7.18574 24086 ft 424 kts 52°
2026-05-05 08:08 51.86279 7.22299 24527 ft 428 kts 45°
2026-05-05 08:08 51.88352 7.25783 24975 ft 432 kts 44°
2026-05-05 08:08 51.90445 7.29302 25423 ft 436 kts 44°
2026-05-05 08:09 51.92551 7.32857 25873 ft 439 kts 44°
2026-05-05 08:09 51.94670 7.36449 26312 ft 443 kts 44°
2026-05-05 08:09 51.96780 7.40032 26748 ft 447 kts 44°
2026-05-05 08:09 51.98938 7.43700 27194 ft 451 kts 44°
2026-05-05 08:10 52.01112 7.47401 27642 ft 455 kts 44°
2026-05-05 08:10 52.03306 7.51140 28077 ft 459 kts 44°
2026-05-05 08:10 52.05519 7.54911 28527 ft 463 kts 44°
2026-05-05 08:10 52.07752 7.58722 28948 ft 467 kts 44°
2026-05-05 08:11 52.10001 7.62565 29368 ft 471 kts 44°
2026-05-05 08:11 52.12277 7.66427 29777 ft 474 kts 43°
2026-05-05 08:11 52.14584 7.70289 30151 ft 478 kts 43°
2026-05-05 08:11 52.16842 7.74038 30483 ft 481 kts 43°
2026-05-05 08:12 52.19198 7.77943 30835 ft 484 kts 43°
2026-05-05 08:12 52.21555 7.81892 31178 ft 487 kts 43°
2026-05-05 08:12 52.23908 7.85887 31511 ft 490 kts 44°
2026-05-05 08:12 52.26267 7.89934 31867 ft 493 kts 44°
2026-05-05 08:13 52.28624 7.94007 32306 ft 493 kts 44°
2026-05-05 08:13 52.30974 7.98079 32805 ft 492 kts 44°
2026-05-05 08:13 52.33322 8.02145 33288 ft 491 kts 44°
2026-05-05 08:13 52.35669 8.06200 33776 ft 491 kts 44°
2026-05-05 08:14 52.38021 8.10253 34220 ft 491 kts 44°
2026-05-05 08:14 52.40338 8.14249 34649 ft 490 kts 44°
2026-05-05 08:14 52.42683 8.18299 34901 ft 489 kts 45°
2026-05-05 08:14 52.45009 8.22327 34970 ft 482 kts 45°
2026-05-05 08:15 52.49576 8.30268 34974 ft 476 kts 45°
2026-05-05 08:15 52.54102 8.38155 34977 ft 474 kts 45°
2026-05-05 08:16 52.58624 8.46065 34945 ft 474 kts 45°
2026-05-05 08:16 52.63136 8.53987 34932 ft 474 kts 45°
2026-05-05 08:17 52.67684 8.62000 34945 ft 484 kts 45°
2026-05-05 08:17 52.69979 8.66057 34566 ft 485 kts 45°
2026-05-05 08:17 52.72336 8.70141 33397 ft 497 kts 41°
2026-05-05 08:18 52.75051 8.73661 32495 ft 495 kts 29°
2026-05-05 08:18 52.78062 8.76288 31934 ft 484 kts 19°
2026-05-05 08:18 52.81219 8.77997 31376 ft 472 kts
2026-05-05 08:18 52.84426 8.78763 30819 ft 460 kts 358°
2026-05-05 08:19 52.87593 8.78809 30151 ft 452 kts 355°
2026-05-05 08:19 52.90718 8.78784 29383 ft 447 kts 355°
2026-05-05 08:19 52.92767 8.78765 28876 ft 443 kts 355°
2026-05-05 08:19 52.95831 8.78759 28124 ft 438 kts 358°
2026-05-05 08:20 52.98849 8.79269 27322 ft 435 kts
2026-05-05 08:20 53.01824 8.79947 26526 ft 429 kts
2026-05-05 08:20 53.04760 8.80624 25986 ft 421 kts
2026-05-05 08:20 53.07638 8.81285 25548 ft 414 kts
2026-05-05 08:21 53.10474 8.81933 25112 ft 408 kts
2026-05-05 08:21 53.13270 8.82567 24687 ft 403 kts
2026-05-05 08:21 53.16039 8.83194 24259 ft 399 kts
2026-05-05 08:21 53.18780 8.83816 23833 ft 396 kts
2026-05-05 08:22 53.21502 8.84436 23361 ft 394 kts
2026-05-05 08:22 53.24199 8.85055 22898 ft 389 kts
2026-05-05 08:22 53.26865 8.85671 22444 ft 384 kts
2026-05-05 08:22 53.29492 8.86278 21998 ft 379 kts
2026-05-05 08:23 53.32092 8.86877 21539 ft 375 kts
2026-05-05 08:23 53.34644 8.87664 21084 ft 372 kts 13°
2026-05-05 08:23 53.37070 8.89119 20620 ft 370 kts 21°
2026-05-05 08:23 53.39431 8.90801 20153 ft 367 kts 21°
2026-05-05 08:24 53.41767 8.92463 19701 ft 364 kts 21°
2026-05-05 08:24 53.44093 8.94112 19232 ft 362 kts 21°
2026-05-05 08:24 53.46402 8.95752 18782 ft 359 kts 21°
2026-05-05 08:24 53.48665 8.97365 18321 ft 357 kts 21°
2026-05-05 08:25 53.50971 8.99010 17821 ft 354 kts 21°
2026-05-05 08:25 53.53216 9.00653 17370 ft 350 kts 25°
2026-05-05 08:25 53.55266 9.02747 16923 ft 348 kts 34°
2026-05-05 08:25 53.57232 9.05105 16459 ft 346 kts 34°
2026-05-05 08:26 53.59182 9.07442 16008 ft 343 kts 34°
2026-05-05 08:26 53.61123 9.09768 15554 ft 341 kts 34°
2026-05-05 08:26 53.63047 9.12074 15089 ft 339 kts 34°
2026-05-05 08:26 53.64961 9.14367 14648 ft 337 kts 33°
2026-05-05 08:27 53.66730 9.16953 14158 ft 340 kts 50°
2026-05-05 08:27 53.67826 9.20462 13700 ft 340 kts 73°
2026-05-05 08:27 53.68035 9.24388 13219 ft 337 kts 97°
2026-05-05 08:27 53.67334 9.28095 12741 ft 331 kts 122°
2026-05-05 08:28 53.65854 9.30974 12298 ft 323 kts 146°
2026-05-05 08:28 53.63955 9.32923 11801 ft 318 kts 154°
2026-05-05 08:28 53.62023 9.34697 11259 ft 314 kts 154°
2026-05-05 08:28 53.60112 9.36410 10726 ft 310 kts 154°
2026-05-05 08:29 53.58249 9.38060 10502 ft 295 kts 154°
2026-05-05 08:29 53.56453 9.39648 10141 ft 289 kts 154°
2026-05-05 08:29 53.54682 9.41204 9695 ft 286 kts 154°
2026-05-05 08:30 53.51190 9.44298 8700 ft 282 kts 154°
2026-05-05 08:30 53.49455 9.45811 8196 ft 280 kts 154°
2026-05-05 08:30 53.47724 9.47304 7707 ft 279 kts 154°
2026-05-05 08:30 53.46013 9.48817 7228 ft 278 kts 150°
2026-05-05 08:31 53.44634 9.51050 6756 ft 279 kts 123°
2026-05-05 08:31 53.44025 9.54103 6276 ft 278 kts 94°
2026-05-05 08:31 53.44086 9.57335 5799 ft 277 kts 85°
2026-05-05 08:31 53.44430 9.60492 5509 ft 274 kts 69°
2026-05-05 08:32 53.45322 9.63245 5189 ft 266 kts 51°
2026-05-05 08:32 53.46493 9.65599 4855 ft 260 kts 49°
2026-05-05 08:32 53.47652 9.67902 4499 ft 256 kts 49°
2026-05-05 08:32 53.48773 9.70141 4163 ft 251 kts 49°
2026-05-05 08:33 53.49885 9.72366 3828 ft 246 kts 49°
2026-05-05 08:33 53.50974 9.74547 3497 ft 241 kts 50°
2026-05-05 08:33 53.52038 9.76678 3177 ft 235 kts 50°
2026-05-05 08:33 53.53076 9.78759 2862 ft 230 kts 50°
2026-05-05 08:34 53.54087 9.80788 2559 ft 223 kts 50°
2026-05-05 08:34 53.55068 9.82758 2250 ft 216 kts 50°
2026-05-05 08:34 53.56001 9.84633 1965 ft 200 kts 51°
2026-05-05 08:34 53.56863 9.86366 1702 ft 187 kts 51°
2026-05-05 08:35 53.57667 9.87986 1449 ft 176 kts 50°
2026-05-05 08:35 53.58427 9.89516 1248 ft 161 kts 50°
2026-05-05 08:35 53.59121 9.90915 968 ft 150 kts 49°
2026-05-05 08:35 53.59742 9.92169 771 ft 131 kts 48°
2026-05-05 08:36 53.60304 9.93302 596 ft 122 kts 47°
2026-05-05 08:36 53.60839 9.94388 439 ft 121 kts 49°
2026-05-05 08:36 53.61382 9.95464 288 ft 119 kts 49°
2026-05-05 08:36 53.61914 9.96547 126 ft 120 kts 50°
2026-05-05 08:37 53.62421 9.97590 42 ft 105 kts 50°
2026-05-05 08:37 53.62807 9.98356 43 ft 62 kts 50°
2026-05-05 08:37 53.63029 9.98804 46 ft 50 kts 50°
2026-05-05 08:37 53.63239 9.99232 47 ft 37 kts 50°
2026-05-05 08:38 53.63294 9.99507 47 ft 20 kts 98°
2026-05-05 08:38 53.63278 9.99653 49 ft 9 kts 99°
2026-05-05 08:38 53.63287 9.99777 45 ft 13 kts 55°
2026-05-05 08:38 53.63351 9.99905 47 ft 16 kts 50°
2026-05-05 08:39 53.63419 10.00043 49 ft 12 kts 52°
2026-05-05 08:39 53.63394 10.00158 49 ft 13 kts 172°
2026-05-05 08:39 53.63293 10.00170 49 ft 15 kts 175°
2026-05-05 08:39 53.63207 10.00181 49 ft 6 kts 175°
2026-05-05 08:40 53.63200 10.00239 45 ft 7 kts 79°
2026-05-05 08:40 53.63204 10.00323 49 ft 5 kts 86°
2026-05-05 08:40 53.63206 10.00364 49 ft 0 kts 86°
2026-05-05 08:40 53.63206 10.00366 49 ft 0 kts 86°